Probability
6 10 10 10 10 6 6 6 6 6 6 3 0 0 0 0 0 3 6 23 42 42 39 32 32 32 35 35 42 42 42 42 42 39 39 32 29 32 32 32 35 26 32
6 10 10 10 6 6 6 6 6 3 3 3 0 0 0 0 0 3 3 10 35 35 39 29 26 29 29 29 32 39 42 45 35 35 29 32 29 26 29 29 29 26 32
10 6 10 6 3 3 0 0 3 3 3 3 3 0 0 0 0 0 0 0 10 35 39 32 29 29 29 29 29 23 32 29 32 35 29 32 35 26 26 32 29 26 23
6 6 3 3 0 0 0 0 3 3 3 3 3 0 0 0 3 3 3 0 3 6 16 29 29 29 29 29 23 23 26 26 26 32 29 32 29 29 29 35 35 29 23
6 6 0 0 0 0 0 0 0 0 0 0 0 3 3 3 3 3 3 0 0 0 0 3 26 29 29 29 26 19 19 23 29 26 32 26 19 19 23 26 29 19 19
6 6 0 3 0 0 0 0 0 0 0 0 3 3 0 0 0 0 0 0 0 0 0 0 3 10 26 29 26 19 23 23 26 29 29 23 19 23 19 19 16 19 13
3 3 3 3 0 0 0 0 0 0 3 3 3 0 0 0 0 0 0 0 0 0 0 0 0 0 3 19 26 29 19 23 23 19 23 23 19 23 23 23 16 16 16
3 3 3 0 0 0 0 0 0 0 3 3 0 0 0 0 0 0 0 0 0 0 0 0 0 0 0 3 3 19 23 26 19 23 26 19 13 16 23 23 23 19 16
6 3 3 3 0 0 0 0 0 0 3 0 0 0 0 0 0 0 0 0 0 0 0 0 0 0 0 0 3 3 19 13 23 16 23 19 13 16 23 23 19 19 13
6 3 3 3 0 0 0 0 0 0 0 0 0 0 0 0 0 0 0 0 0 0 0 0 0 0 0 0 0 0 6 10 13 13 16 16 6 6 16 19 16 13 13
6 3 3 3 3 0 0 0 0 0 0 0 0 0 0 0 0 0 0 0 0 0 0 0 0 0 0 0 0 0 3 0 6 6 6 6 6 6 10 10 16 16 13
6 6 3 3 3 3 0 0 0 0 0 0 0 0 0 0 0 0 0 0 0 0 0 0 0 0 0 0 0 0 0 0 0 0 6 6 6 6 6 10 10 10 13
6 3 3 3 3 3 3 3 0 3 0 0 0 0 0 0 0 0 0 0 0 0 0 0 0 0 0 0 0 3 3 0 0 0 0 0 3 6 6 6 10 10 6
6 3 3 3 3 3 3 3 3 0 0 0 0 0 0 0 0 0 0 0 0 0 0 0 0 0 0 0 0 0 0 0 0 0 0 0 0 0 3 3 0 0 3
6 3 3 3 3 3 3 3 0 0 0 0 0 0 0 0 0 0 0 0 0 0 0 0 0 0 0 0 0 0 0 0 0 0 0 0 0 0 0 0 0 0 0
3 3 3 3 3 3 3 0 0 0 0 0 0 0 0 0 0 0 0 0 0 0 0 0 0 0 0 3 0 0 0 0 0 0 0 0 0 0 0 0 0 0 0
3 3 3 3 3 3 3 0 0 0 0 0 0 0 0 0 0 0 0 0 0 0 0 0 0 0 0 3 0 0 0 0 0 0 0 0 0 0 0 0 0 0 0
0 3 3 3 3 0 0 0 0 0 0 0 0 0 0 0 0 0 0 0 0 0 0 0 0 0 0 0 0 0 0 0 0 0 0 0 0 0 0 0 0 0 0
3 3 0 0 0 0 0 0 0 0 0 0 0 0 0 0 0 0 0 0 0 0 0 0 0 0 0 0 0 0 0 0 0 0 0 0 0 0 0 0 0 0 0
3 3 0 0 0 0 0 0 0 0 0 0 0 0 0 0 0 0 0 0 0 0 0 0 0 0 0 0 0 0 0 0 0 0 0 0 0 0 0 0 0 0 0
0 0 0 0 0 0 0 0 0 0 0 0 0 0 0 0 0 0 0 0 0 0 0 0 0 0 0 0 0 0 0 0 0 0 0 0 0 0 0 0 0 0 0
0 0 0 0 0 0 0 0 0 0 0 0 0 0 0 0 0 0 0 0 0 0 0 0 0 0 0 0 0 0 0 0 0 0 0 0 0 0 0 0 0 0 0
0 0 0 0 0 0 0 0 0 0 0 0 0 0 0 0 0 0 0 0 0 0 0 0 0 0 0 0 0 0 0 0 0 0 0 0 0 0 0 0 0 0 0
0 0 0 0 0 0 0 0 0 0 0 0 0 0 0 0 0 0 0 0 0 0 0 0 0 0 0 0 0 0 0 0 0 0 0 0 0 0 0 0 0 0 0
3 3 0 0 0 0 0 0 0 0 0 0 0 0 0 0 0 0 0 0 0 0 0 0 0 0 0 0 0 0 0 0 0 0 0 0 0 0 0 0 0 0 0
3 3 3 0 0 0 0 0 0 0 0 0 0 0 0 0 0 0 0 0 0 0 0 0 0 0 0 0 0 0 0 0 0 0 0 0 0 0 0 0 0 0 0
Height
5860 5859 5858 5857 5857 5856 5855 5855 5854 5854 5854 5854 5855 5855 5856 5856 5857 5857 5858 5858 5858 5858 5859 5859 5859 5859 5859 5860 5861 5862 5863 5864 5865 5865 5866 5867 5869 5870 5871 5872 5874 5875 5876
5857 5856 5855 5854 5853 5852 5852 5851 5850 5850 5850 5850 5851 5851 5852 5852 5853 5854 5854 5855 5855 5855 5855 5855 5856 5856 5856 5857 5858 5859 5860 5861 5862 5862 5863 5864 5865 5866 5868 5869 5870 5872 5873
5853 5853 5852 5851 5850 5849 5848 5847 5846 5846 5846 5846 5847 5847 5848 5848 5849 5850 5850 5851 5851 5852 5851 5851 5852 5852 5853 5853 5854 5855 5856 5857 5858 5859 5860 5861 5862 5863 5864 5865 5866 5868 5869
5850 5849 5848 5847 5846 5844 5843 5842 5842 5842 5842 5842 5843 5843 5844 5844 5845 5845 5846 5846 5847 5847 5847 5847 5848 5848 5849 5849 5850 5851 5852 5853 5854 5855 5856 5857 5858 5859 5860 5861 5862 5864 5865
5846 5846 5845 5843 5841 5840 5839 5838 5838 5838 5838 5838 5839 5839 5839 5839 5840 5841 5841 5842 5842 5843 5843 5843 5843 5844 5845 5846 5846 5847 5848 5849 5850 5851 5852 5853 5854 5855 5856 5857 5858 5860 5861
5843 5842 5841 5839 5838 5836 5835 5835 5834 5834 5834 5834 5835 5835 5835 5835 5836 5836 5837 5837 5837 5838 5838 5838 5839 5839 5840 5841 5842 5843 5844 5844 5845 5846 5847 5848 5849 5850 5851 5852 5853 5855 5856
5839 5838 5837 5836 5834 5832 5831 5831 5830 5830 5830 5830 5831 5831 5831 5831 5831 5832 5832 5832 5832 5832 5833 5833 5834 5834 5835 5836 5837 5838 5839 5839 5840 5841 5842 5843 5844 5845 5846 5847 5849 5850 5851
5835 5834 5833 5831 5830 5828 5828 5827 5827 5826 5826 5826 5826 5826 5827 5827 5827 5827 5827 5827 5827 5827 5827 5828 5828 5829 5830 5831 5832 5832 5833 5834 5835 5836 5837 5837 5838 5840 5841 5842 5844 5845 5846
5831 5830 5829 5827 5826 5825 5824 5823 5823 5822 5822 5822 5822 5822 5822 5822 5822 5822 5822 5822 5822 5822 5822 5823 5824 5824 5825 5825 5826 5827 5827 5828 5829 5830 5831 5832 5833 5834 5835 5837 5838 5839 5841
5827 5826 5825 5823 5822 5820 5819 5819 5818 5818 5818 5818 5817 5817 5818 5817 5817 5817 5817 5817 5816 5817 5817 5818 5819 5819 5819 5820 5820 5821 5821 5822 5822 5823 5825 5826 5827 5828 5829 5831 5832 5833 5835
5823 5822 5821 5819 5818 5816 5815 5815 5814 5814 5813 5813 5813 5812 5812 5812 5812 5812 5812 5812 5812 5811 5812 5812 5813 5814 5814 5814 5814 5815 5815 5816 5816 5817 5818 5819 5820 5822 5823 5824 5826 5827 5828
5819 5818 5816 5815 5814 5812 5811 5810 5810 5809 5809 5808 5808 5808 5807 5807 5807 5807 5807 5807 5807 5807 5806 5807 5807 5808 5808 5808 5808 5809 5809 5809 5810 5811 5812 5813 5814 5815 5817 5818 5819 5820 5821
5815 5814 5812 5811 5809 5808 5807 5806 5805 5805 5804 5803 5803 5803 5802 5802 5802 5802 5802 5801 5801 5801 5801 5801 5801 5802 5802 5802 5802 5802 5803 5803 5804 5805 5806 5806 5807 5809 5810 5811 5812 5813 5814
5811 5809 5808 5807 5805 5804 5802 5801 5801 5800 5799 5799 5798 5798 5797 5797 5797 5796 5796 5796 5796 5796 5796 5796 5796 5796 5796 5796 5796 5796 5796 5797 5797 5798 5799 5800 5801 5802 5803 5804 5805 5806 5807
5807 5805 5804 5802 5801 5799 5798 5797 5796 5795 5795 5794 5793 5793 5792 5791 5791 5791 5791 5791 5791 5791 5791 5790 5790 5790 5790 5790 5790 5790 5790 5791 5791 5791 5792 5793 5794 5795 5796 5797 5798 5799 5799
5803 5801 5800 5798 5797 5795 5794 5792 5791 5790 5790 5789 5788 5787 5787 5786 5786 5785 5785 5785 5785 5785 5785 5785 5784 5784 5784 5784 5784 5784 5784 5784 5784 5785 5785 5786 5786 5787 5788 5789 5790 5791 5792
5798 5797 5795 5794 5792 5791 5789 5788 5787 5786 5785 5784 5783 5782 5782 5781 5781 5780 5780 5780 5779 5779 5779 5779 5778 5778 5778 5777 5777 5777 5777 5777 5777 5777 5778 5778 5779 5780 5780 5781 5782 5783 5784
5793 5792 5791 5789 5788 5786 5785 5784 5782 5781 5780 5779 5778 5778 5777 5776 5776 5775 5775 5774 5774 5774 5774 5773 5773 5772 5771 5771 5771 5770 5770 5770 5770 5770 5770 5770 5771 5772 5772 5773 5774 5775 5776
5788 5787 5785 5784 5783 5781 5780 5779 5778 5776 5775 5774 5773 5772 5772 5771 5771 5770 5769 5769 5768 5768 5768 5768 5767 5766 5765 5764 5764 5764 5763 5763 5763 5762 5762 5762 5763 5763 5764 5765 5766 5767 5768
5783 5782 5780 5778 5778 5776 5775 5774 5773 5771 5770 5769 5768 5767 5766 5765 5765 5764 5764 5764 5763 5763 5762 5762 5761 5760 5759 5758 5757 5757 5757 5756 5755 5755 5754 5754 5755 5755 5756 5757 5758 5758 5759
5778 5777 5775 5774 5772 5771 5769 5768 5767 5765 5764 5763 5762 5761 5760 5759 5759 5758 5758 5758 5757 5757 5756 5756 5755 5754 5753 5751 5750 5750 5749 5749 5748 5747 5747 5747 5747 5747 5748 5748 5749 5750 5751
5773 5771 5770 5768 5767 5765 5763 5762 5761 5759 5758 5757 5756 5755 5754 5753 5752 5752 5752 5751 5751 5751 5750 5749 5748 5747 5746 5744 5743 5742 5742 5741 5741 5740 5739 5739 5739 5739 5740 5740 5741 5742 5743
5767 5766 5764 5763 5761 5759 5757 5755 5754 5753 5752 5750 5749 5748 5747 5747 5746 5745 5745 5745 5744 5744 5743 5742 5741 5740 5739 5737 5736 5735 5734 5733 5733 5732 5732 5731 5731 5731 5731 5732 5732 5733 5734
5761 5759 5758 5757 5755 5753 5751 5749 5747 5746 5745 5744 5742 5742 5741 5740 5739 5739 5738 5738 5738 5737 5736 5735 5734 5733 5731 5730 5729 5728 5727 5726 5725 5725 5724 5724 5723 5723 5722 5723 5723 5724 5725
5755 5753 5752 5750 5748 5746 5744 5742 5740 5739 5738 5737 5736 5735 5734 5734 5733 5732 5732 5732 5731 5730 5729 5728 5727 5726 5724 5723 5722 5721 5720 5719 5718 5717 5716 5716 5715 5715 5714 5714 5715 5715 5716
5748 5747 5745 5743 5741 5739 5738 5736 5734 5733 5732 5730 5730 5729 5728 5727 5727 5726 5725 5725 5725 5724 5723 5722 5720 5719 5718 5716 5715 5714 5713 5712 5711 5710 5709 5708 5707 5707 5707 5707 5707 5707 5708
Wind_Speed
12 12 13 13 13 13 12 12 12 13 13 13 13 13 13 13 13 13 13 13 13 13 13 13 13 14 13 13 13 14 14 15 14 15 15 15 16 16 16 16 16 15 14
12 13 13 13 13 13 14 14 14 14 14 15 15 15 14 14 14 15 14 13 14 14 14 14 15 15 14 14 14 14 15 15 15 15 15 16 16 17 17 17 17 16 16
13 13 13 14 15 16 16 16 15 15 15 16 16 15 15 16 15 15 15 14 14 14 15 16 16 16 16 16 16 15 15 16 16 17 16 16 17 18 18 18 18 18 17
13 14 14 15 16 16 16 15 15 14 15 15 16 16 16 17 16 15 16 16 16 16 16 16 17 18 17 16 17 16 17 17 17 18 18 18 18 17 18 18 18 19 18
14 14 15 15 16 16 15 15 15 15 15 15 16 16 16 17 17 16 17 17 17 17 18 18 17 18 18 17 17 17 18 18 18 19 19 19 19 18 18 18 19 20 19
14 15 15 15 16 17 16 15 15 15 15 15 16 16 16 17 17 17 16 17 18 18 19 19 19 19 19 19 19 19 19 19 19 20 20 20 21 20 19 20 20 21 21
14 15 16 16 16 16 15 15 15 16 16 15 15 16 17 17 18 19 18 18 18 19 19 19 19 20 20 20 21 20 20 20 21 21 21 22 22 22 21 21 20 21 21
14 15 16 16 16 15 15 14 15 15 16 16 16 17 17 18 18 19 19 19 19 19 19 19 19 19 20 20 20 21 21 22 22 23 23 23 23 23 22 22 22 22 22
14 15 15 16 16 15 16 16 15 15 16 17 18 17 17 18 18 18 18 18 18 18 19 18 19 19 19 20 21 22 23 23 24 24 24 23 23 24 24 23 23 23 23
14 15 15 15 15 15 15 16 15 15 16 17 18 18 17 17 18 18 18 18 18 18 19 19 18 19 19 20 21 22 23 23 23 24 24 24 24 24 25 25 24 24 24
15 16 16 16 16 16 15 15 14 15 15 16 17 17 17 17 17 17 18 18 18 18 19 19 19 19 20 21 21 22 23 23 24 24 25 25 25 25 26 26 26 25 25
16 16 16 16 16 16 16 15 15 15 15 16 16 16 17 17 17 17 17 17 18 19 19 20 20 20 20 21 21 22 22 23 23 24 24 25 25 26 26 26 26 26 26
15 16 16 16 16 16 16 16 16 16 16 15 16 16 17 18 18 18 18 18 18 18 19 19 19 20 20 21 21 22 22 22 23 23 24 25 26 26 27 27 26 27 27
15 15 15 16 16 16 16 16 16 16 16 16 16 16 17 17 18 18 18 18 18 18 19 19 20 21 21 21 21 22 22 22 23 23 24 25 26 26 27 27 27 27 28
15 15 15 16 16 16 16 16 16 16 15 15 16 16 17 17 17 18 18 17 17 17 17 18 19 20 22 22 22 22 22 22 23 23 24 25 26 26 27 27 28 28 28
15 15 16 16 16 16 16 16 15 15 15 15 15 16 16 16 17 17 17 17 17 17 16 17 18 19 20 21 21 21 22 22 23 23 24 25 25 26 27 28 29 29 28
16 16 15 16 16 16 15 15 14 14 15 15 15 15 15 16 16 17 18 18 18 17 17 17 18 19 20 21 22 22 23 23 24 24 24 25 25 25 26 27 28 29 29
16 16 16 16 17 16 15 15 14 14 15 15 15 16 16 16 16 17 17 18 18 17 17 17 17 18 20 21 21 21 22 24 25 25 26 26 26 26 27 27 28 29 29
17 17 17 17 17 16 16 15 15 15 16 16 16 16 17 17 17 17 17 17 17 18 17 17 18 18 19 20 21 22 22 24 25 25 25 26 26 26 27 27 27 27 28
17 17 17 18 18 18 18 17 17 17 17 17 17 17 18 18 18 19 18 18 18 18 18 19 19 19 20 20 21 21 22 23 24 25 25 26 26 26 27 28 28 28 28
17 18 18 18 18 18 19 19 19 19 19 19 18 19 19 19 19 19 19 19 19 19 19 20 20 20 20 21 22 22 23 23 24 24 25 26 27 27 27 28 28 29 29
18 19 19 19 19 19 19 20 20 19 20 20 20 20 20 20 19 20 20 20 20 20 21 21 21 22 22 22 23 23 23 23 23 24 24 25 26 27 28 29 29 29 29
20 20 20 20 20 20 20 20 20 20 21 21 21 21 20 20 20 20 20 21 21 22 23 22 23 22 22 22 23 23 23 23 24 24 24 25 25 27 28 29 29 29 29
21 21 21 21 21 21 21 21 20 20 20 20 20 20 20 20 21 20 21 22 22 22 23 23 22 23 23 23 22 23 23 23 24 24 24 25 25 26 27 27 29 29 30
20 20 21 21 21 21 21 21 21 20 20 19 19 19 20 20 20 20 21 21 22 22 22 22 23 23 23 23 23 23 22 23 23 24 25 25 25 26 26 26 27 28 29
20 20 20 21 22 21 21 21 20 20 19 19 19 19 19 19 19 20 21 21 22 22 22 22 22 23 22 23 23 23 23 23 23 24 24 24 24 25 26 27 27 28 29
Wind_Direction
283 283 285 286 282 279 278 275 274 270 266 265 265 262 258 256 253 251 253 252 253 252 249 246 248 249 251 251 246 247 248 250 247 243 243 242 241 240 241 241 240 242 241
285 286 288 287 284 282 280 277 275 270 266 264 263 261 258 259 255 255 250 252 252 252 252 249 248 249 252 248 247 248 248 249 247 247 244 240 241 241 241 242 240 240 241
287 286 287 286 285 284 280 275 275 273 268 262 260 258 257 258 258 253 251 250 254 255 254 251 247 247 248 248 248 248 251 252 249 246 244 243 245 245 243 242 239 238 241
288 286 287 286 285 284 283 274 273 271 266 263 260 258 257 257 254 253 252 252 255 255 254 253 250 247 248 249 247 248 253 253 252 249 249 250 250 249 248 244 240 238 240
288 288 290 288 287 285 285 279 274 272 265 264 261 260 260 257 252 252 254 255 256 258 257 255 254 251 251 252 252 252 253 253 252 252 252 254 252 251 248 244 241 240 241
290 291 292 293 290 287 284 281 274 272 267 264 260 259 262 261 256 254 256 258 259 259 259 259 256 254 252 252 252 252 254 252 251 252 253 253 252 252 251 246 244 244 244
289 292 294 294 293 288 283 281 274 271 268 266 264 262 264 265 264 261 260 260 260 260 259 257 256 255 252 253 251 249 252 251 251 252 253 253 252 251 251 248 246 247 248
289 291 293 292 292 289 283 279 275 269 267 266 265 262 264 266 267 266 264 261 260 260 258 256 254 256 255 253 252 252 251 251 251 252 253 253 251 250 249 247 248 249 250
289 291 290 290 288 287 283 278 275 269 268 267 266 265 265 265 267 267 263 263 261 259 258 254 255 256 256 254 254 256 255 253 253 254 252 251 250 250 250 249 250 250 250
286 288 290 291 288 286 284 278 274 272 271 270 268 266 265 265 264 264 264 266 266 262 259 257 256 256 257 257 258 259 257 256 254 254 253 251 250 249 249 250 251 251 250
285 288 289 289 289 286 282 277 273 273 272 271 269 267 264 263 263 265 265 265 265 265 261 259 259 259 257 259 260 259 258 257 255 256 255 253 252 250 250 251 251 251 251
286 288 290 289 289 285 280 276 274 274 274 272 271 268 264 263 262 263 266 267 266 264 263 260 260 258 257 259 261 260 258 258 257 256 256 254 252 251 251 252 252 252 252
287 289 290 291 291 288 281 277 276 276 274 271 270 266 265 264 262 262 264 267 266 266 264 261 259 258 259 260 262 261 260 259 259 257 256 255 253 252 253 253 254 254 253
286 288 290 292 293 290 284 279 277 275 273 271 270 268 266 264 262 263 265 266 266 266 265 263 261 261 260 261 262 261 262 262 261 259 258 257 255 253 254 255 255 255 255
284 286 290 292 293 292 287 284 278 274 271 271 271 270 269 264 264 264 265 266 267 267 266 266 267 266 263 263 263 262 263 263 262 262 261 259 257 256 255 255 256 257 257
283 285 288 290 291 291 290 287 281 277 272 273 273 270 269 268 267 266 266 267 268 268 268 268 270 270 268 266 266 265 263 263 263 262 261 259 258 257 256 256 257 257 257
283 285 286 290 291 291 290 286 284 281 275 273 273 272 271 272 271 269 268 268 269 271 273 270 270 270 269 267 267 267 265 263 263 262 261 259 259 258 256 257 258 258 257
283 283 285 287 289 288 286 283 284 283 279 276 274 272 272 273 274 273 270 270 270 270 274 274 273 272 270 269 269 268 268 267 264 263 263 261 260 260 258 258 258 258 256
285 284 284 286 286 285 284 282 284 283 281 280 278 274 272 271 271 272 271 272 273 275 276 276 276 276 273 272 271 269 269 270 267 265 264 263 262 264 262 260 258 258 257
286 286 287 287 285 285 284 281 282 284 282 281 279 277 275 273 271 270 269 270 273 275 278 280 279 278 277 276 274 272 272 272 270 268 266 265 264 264 262 260 259 258 256
286 287 289 287 286 284 283 283 282 281 280 279 278 278 277 276 274 271 269 269 272 276 279 280 279 279 279 277 275 273 274 274 273 270 268 267 266 265 264 261 259 258 257
285 286 286 286 286 287 286 284 282 280 278 277 277 277 277 276 274 271 269 270 272 275 279 280 278 280 280 279 277 276 275 274 273 271 269 267 265 265 264 263 261 259 258
285 287 288 287 288 288 286 284 282 281 280 278 277 277 276 275 274 272 270 270 272 275 278 278 278 279 279 279 279 277 276 275 272 272 270 267 266 266 264 262 260 259 258
286 286 287 287 287 288 288 284 284 284 282 279 278 276 275 274 272 271 270 270 272 275 276 277 278 279 280 281 279 278 278 277 276 274 271 270 268 266 264 262 261 258 257
289 289 289 288 287 287 287 287 285 284 282 280 278 276 275 273 272 271 271 273 274 275 276 277 278 280 281 280 279 278 279 280 279 277 274 272 269 266 264 262 261 259 258
291 293 293 292 290 288 288 286 284 283 281 280 278 277 275 273 272 271 272 273 274 276 277 279 281 282 281 279 278 277 278 279 279 279 277 274 271 268 264 262 260 259 258